Dover, OH

12:13 AM EDT on September 04, 2015 (GMT -0400)
Steele Hill | | Change Station
CLOSE
Current Station
Personal Weather Station
Location: New Philadelphia, OH
Elevation: 942 ft
Nearby Weather Stations

Elev 942 ft 40.48 °N, 81.48 °W | Updated 5 seconds ago

Fog
Fog
68.2 °F
Feels Like 68.2 °F
N
0.0
Wind Variable Wind from ESE
Gusts 3.0 mph

Today
High -- | Low -- °F
--% Chance of Precip.
Yesterday
High -- | Low -- °F
Precip. -- in
6:55 AM 7:53 PM
Waning Gibbous, 63% visible
Pressure 30.00 in
Visibility 2.0 miles
Clouds Clear
Dew Point 67 °F
Humidity 97%
Rainfall 0.00 in
Snow Depth Not available.
UV 0 out of 12
Pollen 10.30 out of 12
Air Quality Not available.
Flu Activity Not available.
METAR KPHD 040353Z AUTO 00000KT 2SM BR CLR 19/19 A3002 RMK AO2 SLP158 T01940194
Pressure 30.00 in
Visibility 2.0 miles
Clouds Clear
Dew Point 67 °F
Humidity 97%
Rainfall 0.00 in
Snow Depth Not available.
UV 0 out of 12
Pollen 10.30 out of 12
Air Quality Not available.
Flu Activity Not available.
METAR KPHD 040353Z AUTO 00000KT 2SM BR CLR 19/19 A3002 RMK AO2 SLP158 T01940194

10-Day Weather Forecast

×

Almanac

Astronomy

Sep. 04, 2015 Rise Set
Actual Time
Civil Twilight
Nautical Twilight
Astronomical Twilight
Moon
Length of Visible Light
Length of Day
Tomorrow will be .
, % of the Moon is Illuminated

Today's Extremes

State Highs State Lows

Community

WunderPhotos

Upload Photos

1,852,126 photos uploaded!

WunderBlogs® & News

Nearby

Air Quality

  Air Quality AQ Index Pollutant
Not available.

Snow Depth

Station Depth Elevation

Earthquake Activity

City Distance Mag. Time & Date
Minimum magnitude displayed is 2.5.

Coastal Water Temperatures

Place Temperature

Stations

Nearby Weather Stations

Station Location Temp. Windchill Dew Point Humidity Wind Precip. Elev Updated Type